User: anonymous   Login
Location: San Vito
(41.8833°N, 12.9833°E)
Time: 14:42:07
(UTC+00:00)
Language:

Cosmos 1048 Rocket - Orbit

View from above orbital plane
View from above orbital plane
View from above satellite
View from above satellite

Ground track
Ground track

The orbit data is extracted from the following two-line orbital elements,

1 11112U 78105B   20024.60066097 +.00000108 +00000-0 +44626-4 0  9994
2 11112 074.0291 215.7511 0033123 141.7138 218.6377 14.37246364156185
Epoch (UTC): 24 January 2020 14:24:57
Eccentricity: 0.0033123
inclination: 74.0291°
perigee height: 744 km
apogee height: 791 km
right ascension of ascending node: 215.7511°
argument of perigee: 141.7138°
revolutions per day: 14.37246364
mean anomaly at epoch: 218.6377°
orbit number at epoch: 15618

The dashed part of the orbit path shows where the satellite is in the earth's shadow,  

DLR